Tracking 28790 objects as of 18-Apr-2024
HD Live streaming from Space Station
objects crossing your sky now

SL-12 DEB

Track SL-12 DEB now!


NORAD ID: 20044
Int'l Code: 1989-039F
Perigee: 19,084.8 km
Apogee: 19,172.8 km
Inclination: 65.4 °
Period: 675.4 minutes
Semi major axis: 25499 km
RCS: 0.4364 m2 (medium)
Launch date: May 31, 1989
Source: Commonwealth of Independent States (former USSR) (CIS)
Launch site: TYURATAM MISSILE AND SPACE COMPLEX (TTMTR)

Note: This is SATELLITE DEBRIS
Your satellite tracking list
Your tracking list is empty




NASA's NSSDC Master Catalog

Two Line Element Set (TLE):
1 20044U 89039F   24105.59998685 -.00000072  00000-0  00000-0 0  9990
2 20044  65.3624 337.7190 0017248 215.1262 334.3404  2.13205477269738
Source of the keplerian elements: AFSPC